RYR249 EDDN-LFCK

Flight info

Callsign RYR249
Flight time 1h 31m
Altitude 37000
Route BOLSI1G/28 BOLSI Y166 DKB N869 NATOR/N0435F390 N869 OLBEN DCT ONNOF DCT BELUS/N0436F380 DCT LSE/N0438F390 UY305 ESIDA DCT AMOLO
Aircraft A20N/M-SDE2E3FGHIRWXY/LB1

Departure

Time 2026-04-23 13:15
Airport Nuremberg Airport (EDDN)

Arrival

Time 2026-04-23 14:47
Airport Castres Mazamet Airport (LFCK)
Time Latitude Longitude Altitude Speed Heading
2026-04-23 12:40 49.49637 11.07081 1023 ft 0 kts 188°
2026-04-23 13:03 49.49636 11.07081 1023 ft 0 kts 188°
2026-04-23 13:03 49.49627 11.07079 1023 ft 1 kts 188°
2026-04-23 13:04 49.49624 11.07078 1023 ft 0 kts 187°
2026-04-23 13:04 49.49611 11.07078 1023 ft 2 kts 173°
2026-04-23 13:04 49.49591 11.07102 1023 ft 4 kts 116°
2026-04-23 13:05 49.49585 11.07163 1024 ft 6 kts 88°
2026-04-23 13:05 49.49615 11.07216 1024 ft 8 kts 13°
2026-04-23 13:05 49.49678 11.07228 1024 ft 9 kts
2026-04-23 13:05 49.49726 11.07294 1024 ft 10 kts 86°
2026-04-23 13:06 49.49703 11.07545 1026 ft 12 kts 99°
2026-04-23 13:06 49.49690 11.07686 1027 ft 13 kts 99°
2026-04-23 13:06 49.49628 11.07767 1027 ft 14 kts 181°
2026-04-23 13:07 49.49574 11.07872 1027 ft 14 kts 91°
2026-04-23 13:07 49.49562 11.08019 1029 ft 13 kts 99°
2026-04-23 13:07 49.49547 11.08157 1030 ft 12 kts 98°
2026-04-23 13:07 49.49535 11.08284 1031 ft 11 kts 96°
2026-04-23 13:08 49.49576 11.08354 1032 ft 9 kts 14°
2026-04-23 13:08 49.49616 11.08416 1032 ft 9 kts 91°
2026-04-23 13:08 49.49608 11.08518 1034 ft 9 kts 98°
2026-04-23 13:08 49.49598 11.08616 1035 ft 8 kts 98°
2026-04-23 13:09 49.49589 11.08709 1036 ft 8 kts 98°
2026-04-23 13:09 49.49579 11.08803 1038 ft 9 kts 98°
2026-04-23 13:09 49.49571 11.08897 1039 ft 9 kts 98°
2026-04-23 13:09 49.49561 11.09000 1041 ft 9 kts 98°
2026-04-23 13:10 49.49550 11.09104 1042 ft 9 kts 99°
2026-04-23 13:10 49.49539 11.09210 1044 ft 10 kts 98°
2026-04-23 13:10 49.49530 11.09317 1046 ft 10 kts 89°
2026-04-23 13:10 49.49546 11.09388 1047 ft 6 kts 57°
2026-04-23 13:11 49.49570 11.09440 1048 ft 5 kts 53°
2026-04-23 13:11 49.49594 11.09489 1049 ft 5 kts 53°
2026-04-23 13:11 49.49598 11.09499 1049 ft 0 kts 53°
2026-04-23 13:12 49.49599 11.09499 1049 ft 0 kts 53°
2026-04-23 13:12 49.49599 11.09500 1049 ft 0 kts 53°
2026-04-23 13:12 49.49601 11.09504 1049 ft 1 kts 53°
2026-04-23 13:12 49.49610 11.09524 1049 ft 3 kts 54°
2026-04-23 13:13 49.49634 11.09561 1049 ft 6 kts 32°
2026-04-23 13:13 49.49683 11.09567 1049 ft 7 kts 334°
2026-04-23 13:13 49.49704 11.09493 1049 ft 6 kts 278°
2026-04-23 13:13 49.49705 11.09480 1048 ft 0 kts 278°
2026-04-23 13:14 49.49708 11.09446 1048 ft 22 kts 278°
2026-04-23 13:14 49.49772 11.08801 1038 ft 96 kts 278°
2026-04-23 13:15 49.49905 11.07445 1026 ft 155 kts 278°
2026-04-23 13:15 49.50069 11.05753 1476 ft 165 kts 280°
2026-04-23 13:15 49.50251 11.03994 2098 ft 170 kts 280°
2026-04-23 13:15 49.50420 11.02217 2789 ft 172 kts 281°
2026-04-23 13:16 49.50600 11.00352 3340 ft 184 kts 281°
2026-04-23 13:16 49.50797 10.98354 3812 ft 201 kts 282°
2026-04-23 13:16 49.51017 10.96124 4302 ft 218 kts 282°
2026-04-23 13:16 49.51199 10.93687 4733 ft 242 kts 271°
2026-04-23 13:17 49.50854 10.91090 5337 ft 262 kts 251°
2026-04-23 13:17 49.50074 10.88453 5992 ft 277 kts 247°
2026-04-23 13:17 49.49226 10.85811 6805 ft 283 kts 247°
2026-04-23 13:17 49.48363 10.83109 7691 ft 286 kts 248°
2026-04-23 13:18 49.47494 10.80348 8526 ft 290 kts 248°
2026-04-23 13:18 49.46376 10.77740 9321 ft 301 kts 224°
2026-04-23 13:18 49.44558 10.76200 10140 ft 308 kts 194°
2026-04-23 13:18 49.42434 10.75943 10887 ft 313 kts 179°
2026-04-23 13:19 49.40207 10.75996 11329 ft 330 kts 178°
2026-04-23 13:19 49.37854 10.76051 11864 ft 342 kts 179°
2026-04-23 13:19 49.35463 10.76063 12612 ft 346 kts 179°
2026-04-23 13:19 49.33056 10.76043 13402 ft 349 kts 180°
2026-04-23 13:20 49.30632 10.76002 14153 ft 353 kts 180°
2026-04-23 13:20 49.28178 10.75954 14900 ft 356 kts 180°
2026-04-23 13:20 49.25708 10.75443 15576 ft 362 kts 200°
2026-04-23 13:20 49.23575 10.73468 16288 ft 363 kts 225°
2026-04-23 13:21 49.22130 10.70331 16965 ft 362 kts 250°
2026-04-23 13:21 49.21443 10.66660 17595 ft 363 kts 260°
2026-04-23 13:21 49.20879 10.62902 18176 ft 370 kts 260°
2026-04-23 13:21 49.20283 10.59042 18787 ft 375 kts 259°
2026-04-23 13:22 49.19661 10.55202 19407 ft 378 kts 259°
2026-04-23 13:22 49.19004 10.51268 19998 ft 383 kts 258°
2026-04-23 13:22 49.18339 10.47336 20583 ft 387 kts 258°
2026-04-23 13:22 49.17654 10.43341 21152 ft 391 kts 258°
2026-04-23 13:23 49.16959 10.39308 21720 ft 395 kts 258°
2026-04-23 13:23 49.16267 10.35299 22269 ft 399 kts 258°
2026-04-23 13:23 49.15551 10.31149 22798 ft 403 kts 257°
2026-04-23 13:23 49.14790 10.27004 23313 ft 408 kts 252°
2026-04-23 13:24 49.13641 10.23019 23821 ft 413 kts 241°
2026-04-23 13:24 49.12043 10.19345 24343 ft 417 kts 232°
2026-04-23 13:24 49.10230 10.15883 24839 ft 421 kts 230°
2026-04-23 13:24 49.08360 10.12427 25307 ft 425 kts 230°
2026-04-23 13:25 49.06453 10.08897 25891 ft 425 kts 230°
2026-04-23 13:25 49.04578 10.05402 26431 ft 427 kts 230°
2026-04-23 13:25 49.02714 10.01909 26892 ft 430 kts 230°
2026-04-23 13:25 49.00809 9.98327 27345 ft 433 kts 230°
2026-04-23 13:26 48.98918 9.94770 27767 ft 436 kts 230°
2026-04-23 13:26 48.96998 9.91160 28188 ft 439 kts 230°
2026-04-23 13:26 48.95067 9.87529 28598 ft 442 kts 230°
2026-04-23 13:26 48.93137 9.83910 29000 ft 445 kts 230°
2026-04-23 13:27 48.91180 9.80246 29412 ft 448 kts 230°
2026-04-23 13:27 48.89199 9.76548 29787 ft 451 kts 229°
2026-04-23 13:27 48.87214 9.72863 30119 ft 454 kts 229°
2026-04-23 13:27 48.85212 9.69158 30443 ft 458 kts 229°
2026-04-23 13:28 48.83201 9.65426 30783 ft 460 kts 229°
2026-04-23 13:28 48.81157 9.61631 31159 ft 462 kts 229°
2026-04-23 13:28 48.79137 9.57881 31522 ft 463 kts 229°
2026-04-23 13:28 48.77101 9.54098 31975 ft 461 kts 229°
2026-04-23 13:29 48.75080 9.50354 32441 ft 460 kts 229°
2026-04-23 13:29 48.73062 9.46621 32857 ft 459 kts 229°
2026-04-23 13:29 48.71045 9.42900 33238 ft 458 kts 229°
2026-04-23 13:29 48.69012 9.39153 33601 ft 458 kts 229°
2026-04-23 13:30 48.67001 9.35446 33954 ft 458 kts 229°
2026-04-23 13:30 48.64985 9.31732 34313 ft 456 kts 228°
2026-04-23 13:30 48.62983 9.28039 34693 ft 455 kts 228°
2026-04-23 13:30 48.61035 9.24248 35099 ft 454 kts 231°
2026-04-23 13:31 48.59224 9.20434 35492 ft 452 kts 232°
2026-04-23 13:31 48.57417 9.16596 35863 ft 450 kts 232°
2026-04-23 13:31 48.55599 9.12728 36218 ft 448 kts 232°
2026-04-23 13:31 48.53802 9.08914 36547 ft 447 kts 232°
2026-04-23 13:32 48.51994 9.05085 36841 ft 446 kts 232°
2026-04-23 13:32 48.50208 9.01313 37075 ft 446 kts 232°
2026-04-23 13:32 48.48388 8.97476 37278 ft 447 kts 232°
2026-04-23 13:33 48.44776 8.89878 37303 ft 448 kts 232°
2026-04-23 13:33 48.41151 8.82273 37307 ft 449 kts 232°
2026-04-23 13:34 48.37488 8.74613 37306 ft 451 kts 232°
2026-04-23 13:34 48.33798 8.66912 37304 ft 452 kts 232°
2026-04-23 13:35 48.30150 8.59317 37306 ft 451 kts 232°
2026-04-23 13:35 48.26460 8.51658 37302 ft 452 kts 232°
2026-04-23 13:36 48.22755 8.44000 37381 ft 456 kts 232°
2026-04-23 13:36 48.18751 8.36628 37597 ft 458 kts 223°
2026-04-23 13:36 48.16454 8.33315 37813 ft 455 kts 217°
2026-04-23 13:37 48.14022 8.30342 38055 ft 451 kts 212°
2026-04-23 13:37 48.11467 8.27709 38257 ft 448 kts 207°
2026-04-23 13:37 48.08780 8.25385 38441 ft 446 kts 204°
2026-04-23 13:37 48.06060 8.23189 38601 ft 446 kts 204°
2026-04-23 13:38 48.03341 8.21013 38742 ft 446 kts 204°
2026-04-23 13:38 48.00610 8.18823 38903 ft 446 kts 204°
2026-04-23 13:38 47.97857 8.16608 39057 ft 445 kts 204°
2026-04-23 13:38 47.95136 8.14417 39216 ft 445 kts 204°
2026-04-23 13:39 47.92394 8.12210 39279 ft 446 kts 204°
2026-04-23 13:39 47.86949 8.07837 39297 ft 445 kts 204°
2026-04-23 13:40 47.81503 8.03481 39235 ft 445 kts 204°
2026-04-23 13:40 47.76045 7.99114 39278 ft 445 kts 204°
2026-04-23 13:41 47.70588 7.94750 39281 ft 445 kts 204°
2026-04-23 13:41 47.65158 7.90417 39278 ft 444 kts 204°
2026-04-23 13:42 47.59737 7.86103 39278 ft 444 kts 204°
2026-04-23 13:42 47.54305 7.81792 39282 ft 443 kts 204°
2026-04-23 13:43 47.48849 7.77467 39291 ft 443 kts 204°
2026-04-23 13:43 47.43433 7.73182 39278 ft 443 kts 204°
2026-04-23 13:44 47.38013 7.68909 39285 ft 442 kts 204°
2026-04-23 13:44 47.32626 7.64476 39279 ft 444 kts 209°
2026-04-23 13:45 47.27610 7.59219 39302 ft 447 kts 216°
2026-04-23 13:45 47.22915 7.53158 39309 ft 448 kts 219°
2026-04-23 13:46 47.18288 7.47074 39316 ft 448 kts 219°
2026-04-23 13:46 47.13627 7.40980 39313 ft 447 kts 219°
2026-04-23 13:47 47.08979 7.34924 39290 ft 447 kts 218°
2026-04-23 13:47 47.04319 7.28845 39294 ft 446 kts 218°
2026-04-23 13:48 46.99684 7.22820 39275 ft 445 kts 218°
2026-04-23 13:48 46.95044 7.16818 39271 ft 446 kts 218°
2026-04-23 13:49 46.90392 7.10821 39280 ft 447 kts 218°
2026-04-23 13:49 46.85715 7.04832 39268 ft 446 kts 218°
2026-04-23 13:50 46.81062 6.98888 39278 ft 445 kts 218°
2026-04-23 13:50 46.76409 6.92940 39278 ft 445 kts 219°
2026-04-23 13:51 46.71748 6.86993 39279 ft 445 kts 219°
2026-04-23 13:51 46.67096 6.81065 39280 ft 445 kts 219°
2026-04-23 13:52 46.62435 6.75141 39269 ft 446 kts 219°
2026-04-23 13:52 46.57783 6.69247 39278 ft 445 kts 219°
2026-04-23 13:53 46.53111 6.63338 39260 ft 445 kts 219°
2026-04-23 13:53 46.48434 6.57436 39256 ft 445 kts 220°
2026-04-23 13:54 46.43766 6.51558 39254 ft 445 kts 220°
2026-04-23 13:54 46.39091 6.45688 39247 ft 445 kts 220°
2026-04-23 13:55 46.34806 6.39277 39238 ft 445 kts 228°
2026-04-23 13:55 46.32763 6.35924 38994 ft 442 kts 228°
2026-04-23 13:55 46.30747 6.32604 38464 ft 440 kts 227°
2026-04-23 13:55 46.28714 6.29261 38263 ft 444 kts 227°
2026-04-23 13:56 46.26660 6.25907 38252 ft 446 kts 227°
2026-04-23 13:56 46.22558 6.19258 38246 ft 447 kts 227°
2026-04-23 13:57 46.18421 6.12592 38240 ft 446 kts 227°
2026-04-23 13:57 46.14274 6.05930 38246 ft 446 kts 227°
2026-04-23 13:58 46.10136 5.99303 38236 ft 446 kts 227°
2026-04-23 13:58 46.05992 5.92688 38230 ft 446 kts 227°
2026-04-23 13:59 46.01843 5.86074 38233 ft 445 kts 227°
2026-04-23 13:59 45.97697 5.79485 38234 ft 445 kts 228°
2026-04-23 14:00 45.94253 5.74024 38238 ft 446 kts 228°
2026-04-23 14:00 45.89403 5.66346 38239 ft 446 kts 228°
2026-04-23 14:01 45.85199 5.59758 38241 ft 447 kts 228°
2026-04-23 14:01 45.81016 5.53204 38230 ft 447 kts 229°
2026-04-23 14:02 45.76861 5.46691 38231 ft 446 kts 229°
2026-04-23 14:02 45.72679 5.40138 38232 ft 446 kts 229°
2026-04-23 14:03 45.68487 5.33582 38237 ft 445 kts 229°
2026-04-23 14:03 45.64337 5.27083 38236 ft 445 kts 229°
2026-04-23 14:04 45.60175 5.20589 38249 ft 444 kts 229°
2026-04-23 14:04 45.55987 5.14080 38237 ft 444 kts 229°
2026-04-23 14:05 45.51819 5.07627 38233 ft 444 kts 229°
2026-04-23 14:05 45.47658 5.01198 38228 ft 443 kts 230°
2026-04-23 14:06 45.43483 4.94763 38236 ft 443 kts 230°
2026-04-23 14:06 45.39297 4.88326 38231 ft 443 kts 230°
2026-04-23 14:07 45.35135 4.81944 38239 ft 442 kts 231°
2026-04-23 14:07 45.28847 4.72325 38229 ft 443 kts 231°
2026-04-23 14:08 45.24665 4.65944 38233 ft 442 kts 231°
2026-04-23 14:08 45.20477 4.59573 38231 ft 442 kts 231°
2026-04-23 14:09 45.16296 4.53226 38235 ft 441 kts 231°
2026-04-23 14:09 45.12114 4.46889 38237 ft 441 kts 231°
2026-04-23 14:10 45.10013 4.43714 38109 ft 442 kts 231°
2026-04-23 14:10 45.07914 4.40545 37804 ft 438 kts 232°
2026-04-23 14:10 45.05845 4.37430 37494 ft 435 kts 232°
2026-04-23 14:10 45.03784 4.34326 37132 ft 432 kts 232°
2026-04-23 14:11 45.01739 4.31241 36685 ft 430 kts 232°
2026-04-23 14:11 44.99672 4.28119 36185 ft 428 kts 232°
2026-04-23 14:11 44.97649 4.25070 35768 ft 428 kts 232°
2026-04-23 14:11 44.95615 4.22012 35285 ft 429 kts 233°
2026-04-23 14:12 44.93568 4.18942 34732 ft 431 kts 233°
2026-04-23 14:12 44.91497 4.15837 34184 ft 432 kts 233°
2026-04-23 14:12 44.89440 4.12758 33489 ft 435 kts 233°
2026-04-23 14:12 44.87356 4.09660 32875 ft 435 kts 233°
2026-04-23 14:13 44.85235 4.06518 32280 ft 434 kts 233°
2026-04-23 14:13 44.83160 4.03440 31772 ft 431 kts 233°
2026-04-23 14:13 44.81113 4.00411 31376 ft 425 kts 233°
2026-04-23 14:13 44.79085 3.97405 30980 ft 420 kts 233°
2026-04-23 14:14 44.77066 3.94412 30568 ft 415 kts 233°
2026-04-23 14:14 44.75100 3.91500 30147 ft 411 kts 233°
2026-04-23 14:14 44.73152 3.88611 29746 ft 407 kts 233°
2026-04-23 14:14 44.71186 3.85701 29343 ft 402 kts 233°
2026-04-23 14:15 44.69273 3.82867 28898 ft 399 kts 233°
2026-04-23 14:15 44.67368 3.80051 28495 ft 395 kts 233°
2026-04-23 14:15 44.65494 3.77282 28076 ft 392 kts 233°
2026-04-23 14:15 44.63610 3.74503 27685 ft 388 kts 233°
2026-04-23 14:16 44.61752 3.71768 27269 ft 385 kts 233°
2026-04-23 14:16 44.59916 3.69064 26851 ft 382 kts 233°
2026-04-23 14:16 44.58095 3.66384 26405 ft 381 kts 233°
2026-04-23 14:16 44.56267 3.63695 25961 ft 379 kts 233°
2026-04-23 14:17 44.54446 3.61024 25539 ft 377 kts 232°
2026-04-23 14:17 44.52623 3.58350 25119 ft 375 kts 232°
2026-04-23 14:17 44.50845 3.55746 24737 ft 372 kts 232°
2026-04-23 14:17 44.49054 3.53126 24320 ft 370 kts 232°
2026-04-23 14:18 44.47256 3.50497 23886 ft 369 kts 232°
2026-04-23 14:18 44.45508 3.47944 23484 ft 368 kts 232°
2026-04-23 14:18 44.43723 3.45337 23053 ft 367 kts 232°
2026-04-23 14:18 44.41957 3.42765 22650 ft 365 kts 231°
2026-04-23 14:19 44.40219 3.40234 22261 ft 362 kts 231°
2026-04-23 14:19 44.38460 3.37675 21848 ft 361 kts 231°
2026-04-23 14:19 44.36736 3.35167 21466 ft 358 kts 231°
2026-04-23 14:19 44.35010 3.32656 21085 ft 356 kts 230°
2026-04-23 14:20 44.33297 3.30158 20693 ft 354 kts 230°
2026-04-23 14:20 44.31578 3.27657 20290 ft 352 kts 230°
2026-04-23 14:20 44.29892 3.25210 19916 ft 350 kts 230°
2026-04-23 14:20 44.28195 3.22754 19525 ft 349 kts 230°
2026-04-23 14:21 44.26527 3.20336 19135 ft 347 kts 230°
2026-04-23 14:21 44.24871 3.17943 18752 ft 345 kts 230°
2026-04-23 14:21 44.23210 3.15549 18368 ft 343 kts 230°
2026-04-23 14:21 44.21549 3.13151 17998 ft 341 kts 230°
2026-04-23 14:22 44.19930 3.10818 17622 ft 339 kts 230°
2026-04-23 14:22 44.18293 3.08460 17242 ft 337 kts 229°
2026-04-23 14:22 44.16678 3.06136 16859 ft 336 kts 229°
2026-04-23 14:22 44.15047 3.03792 16483 ft 333 kts 229°
2026-04-23 14:23 44.13438 3.01483 16117 ft 332 kts 229°
2026-04-23 14:23 44.11852 2.99208 15739 ft 330 kts 229°
2026-04-23 14:23 44.10250 2.96912 15365 ft 328 kts 229°
2026-04-23 14:23 44.08667 2.94643 14989 ft 327 kts 229°
2026-04-23 14:24 44.07087 2.92380 14616 ft 325 kts 228°
2026-04-23 14:24 44.05522 2.90143 14247 ft 323 kts 228°
2026-04-23 14:24 44.03968 2.87922 13873 ft 322 kts 228°
2026-04-23 14:24 44.02415 2.85705 13500 ft 320 kts 228°
2026-04-23 14:25 44.00851 2.83477 13134 ft 319 kts 228°
2026-04-23 14:25 43.99322 2.81298 12774 ft 317 kts 227°
2026-04-23 14:25 43.97776 2.79096 12418 ft 315 kts 227°
2026-04-23 14:25 43.96265 2.76944 12071 ft 314 kts 227°
2026-04-23 14:26 43.94754 2.74797 11703 ft 313 kts 227°
2026-04-23 14:26 43.93241 2.72648 11342 ft 311 kts 227°
2026-04-23 14:26 43.91724 2.70493 10985 ft 310 kts 227°
2026-04-23 14:26 43.90227 2.68370 10624 ft 309 kts 226°
2026-04-23 14:27 43.88727 2.66255 10278 ft 307 kts 226°
2026-04-23 14:27 43.87243 2.64175 10195 ft 293 kts 226°
2026-04-23 14:27 43.85838 2.62202 9987 ft 287 kts 227°
2026-04-23 14:27 43.84458 2.60255 9667 ft 285 kts 227°
2026-04-23 14:28 43.83178 2.58153 9330 ft 282 kts 240°
2026-04-23 14:28 43.82435 2.55687 9015 ft 279 kts 257°
2026-04-23 14:28 43.82053 2.53076 8705 ft 277 kts 261°
2026-04-23 14:28 43.81719 2.50459 8395 ft 275 kts 261°
2026-04-23 14:29 43.81388 2.47875 8088 ft 274 kts 260°
2026-04-23 14:29 43.81047 2.45289 7778 ft 273 kts 260°
2026-04-23 14:29 43.80701 2.42717 7472 ft 271 kts 259°
2026-04-23 14:29 43.80353 2.40171 7171 ft 270 kts 259°
2026-04-23 14:30 43.80007 2.37648 6882 ft 269 kts 259°
2026-04-23 14:30 43.79655 2.35094 6588 ft 267 kts 259°
2026-04-23 14:30 43.79310 2.32594 6307 ft 266 kts 258°
2026-04-23 14:30 43.78962 2.30071 6037 ft 264 kts 257°
2026-04-23 14:31 43.78619 2.27611 5755 ft 263 kts 257°
2026-04-23 14:31 43.78273 2.25132 5471 ft 262 kts 257°
2026-04-23 14:31 43.77931 2.22669 5199 ft 261 kts 257°
2026-04-23 14:31 43.77523 2.20230 4919 ft 259 kts 248°
2026-04-23 14:32 43.76717 2.18029 4655 ft 254 kts 231°
2026-04-23 14:32 43.75632 2.16097 4400 ft 253 kts 226°
2026-04-23 14:32 43.74517 2.14252 4136 ft 253 kts 226°
2026-04-23 14:32 43.73277 2.12555 3928 ft 240 kts 204°
2026-04-23 14:33 43.71785 2.11993 3886 ft 215 kts 172°
2026-04-23 14:33 43.70425 2.12467 3838 ft 194 kts 146°
2026-04-23 14:33 43.69365 2.13541 3809 ft 186 kts 137°
2026-04-23 14:33 43.68379 2.14676 3771 ft 187 kts 137°
2026-04-23 14:34 43.67386 2.15833 3671 ft 186 kts 136°
2026-04-23 14:34 43.66400 2.16978 3583 ft 186 kts 137°
2026-04-23 14:34 43.65390 2.18117 3367 ft 184 kts 138°
2026-04-23 14:34 43.64426 2.19181 3149 ft 177 kts 138°
2026-04-23 14:35 43.63479 2.20227 2854 ft 174 kts 138°
2026-04-23 14:35 43.62536 2.21267 2561 ft 167 kts 138°
2026-04-23 14:35 43.61671 2.22221 2298 ft 154 kts 138°
2026-04-23 14:35 43.60871 2.23107 2071 ft 143 kts 137°
2026-04-23 14:36 43.60140 2.23912 1891 ft 127 kts 137°
2026-04-23 14:36 43.59491 2.24631 1692 ft 117 kts 136°
2026-04-23 14:36 43.58860 2.25331 1527 ft 116 kts 136°
2026-04-23 14:36 43.58228 2.26031 1359 ft 116 kts 137°
2026-04-23 14:37 43.57602 2.26723 1200 ft 116 kts 137°
2026-04-23 14:37 43.56972 2.27423 979 ft 115 kts 137°
2026-04-23 14:37 43.56352 2.28113 819 ft 113 kts 139°
2026-04-23 14:37 43.55753 2.28770 809 ft 116 kts 139°
2026-04-23 14:38 43.55057 2.29353 1365 ft 128 kts 160°
2026-04-23 14:38 43.54173 2.29029 2105 ft 153 kts 208°
2026-04-23 14:38 43.53641 2.27675 2776 ft 176 kts 258°
2026-04-23 14:38 43.53900 2.25991 3245 ft 191 kts 304°
2026-04-23 14:39 43.54981 2.24915 3517 ft 204 kts 346°
2026-04-23 14:39 43.56456 2.24484 3482 ft 229 kts 357°
2026-04-23 14:39 43.58056 2.24182 3465 ft 234 kts 357°
2026-04-23 14:39 43.59658 2.23869 3487 ft 235 kts 356°
2026-04-23 14:40 43.61281 2.23513 3496 ft 235 kts 355°
2026-04-23 14:40 43.62912 2.23126 3499 ft 235 kts 355°
2026-04-23 14:40 43.64502 2.22733 3503 ft 235 kts 354°
2026-04-23 14:40 43.66132 2.22323 3508 ft 236 kts 354°
2026-04-23 14:41 43.67736 2.21915 3506 ft 235 kts 354°
2026-04-23 14:41 43.69346 2.21458 3498 ft 237 kts 346°
2026-04-23 14:41 43.70693 2.20158 3478 ft 241 kts 304°
2026-04-23 14:41 43.71156 2.18005 3481 ft 238 kts 262°
2026-04-23 14:42 43.70555 2.15985 3479 ft 223 kts 219°
2026-04-23 14:42 43.69289 2.15051 3480 ft 195 kts 182°
2026-04-23 14:42 43.68001 2.15269 3492 ft 184 kts 149°
2026-04-23 14:42 43.66978 2.16201 3659 ft 169 kts 138°
2026-04-23 14:43 43.66111 2.17226 3522 ft 158 kts 135°
2026-04-23 14:43 43.65321 2.18163 3343 ft 143 kts 136°
2026-04-23 14:43 43.64596 2.18991 3123 ft 129 kts 137°
2026-04-23 14:43 43.63925 2.19739 2918 ft 121 kts 137°
2026-04-23 14:44 43.63273 2.20460 2745 ft 119 kts 137°
2026-04-23 14:44 43.62628 2.21174 2584 ft 119 kts 136°
2026-04-23 14:44 43.61986 2.21881 2415 ft 118 kts 137°
2026-04-23 14:44 43.61348 2.22584 2244 ft 117 kts 137°
2026-04-23 14:45 43.60716 2.23282 2052 ft 117 kts 137°
2026-04-23 14:45 43.60077 2.23987 1871 ft 116 kts 137°
2026-04-23 14:45 43.59448 2.24684 1689 ft 116 kts 138°
2026-04-23 14:45 43.58822 2.25373 1514 ft 115 kts 137°
2026-04-23 14:46 43.58188 2.26075 1337 ft 116 kts 138°
2026-04-23 14:46 43.57565 2.26767 1179 ft 115 kts 138°
2026-04-23 14:46 43.56942 2.27443 985 ft 115 kts 136°
2026-04-23 14:46 43.56324 2.28136 793 ft 113 kts 137°
2026-04-23 14:47 43.55760 2.28769 754 ft 83 kts 141°
2026-04-23 14:47 43.55542 2.29009 770 ft 2 kts 142°
2026-04-23 14:47 43.55536 2.29015 771 ft 0 kts 141°
2026-04-23 14:47 43.55512 2.29037 772 ft 6 kts 158°
2026-04-23 14:48 43.55467 2.29009 772 ft 9 kts 228°
2026-04-23 14:48 43.55461 2.28912 770 ft 10 kts 287°
2026-04-23 14:48 43.55448 2.28883 768 ft 4 kts 167°
2026-04-23 14:48 43.55430 2.28899 770 ft 0 kts 103°
2026-04-23 14:49 43.55432 2.28891 769 ft 1 kts 101°
2026-04-23 14:49 43.55431 2.28879 768 ft 0 kts 69°